Terug naar catalogus

STARLINK-4683

ActiefCommunicatieVLEO
NORAD 53712·PAYLOAD·🇺🇸 United States

Gelanceerd Sep 5, 2022 vanaf Cape Canaveral Space Force Station

Loading…

Volgende Passages (komende 24 uur)

TLE

VersSource: CelesTrak SupGP

Epoch: Sep 15, 2026, 01:29 UTC

1 53712C 22107N   26258.06229167  .00021240  00000+0  62767-3 0  2583
2 53712  53.1573 109.2509 0001214  81.1874 256.5268 15.34373787    10

Volg STARLINK-4683 in realtime met AllMySat

Download on the App Store